"Time","Temp","Dewpoint","Humidity","Pressure","Direction","Speed","Gust","Precip","PrecipRate"
"00:04:59","74.2","58","57","29.79","196","5.7","12","0.00","0.00"
"00:09:57","74.4","57.9","56.3","29.79","213","7","14","0.00","0.00"
"00:14:56","74.7","58.1","56.3","29.79","210","7.5","17.3","0.00","0.00"
"00:19:58","74.7","58.1","56.2","29.79","200","5.7","12","0.00","0.00"
"00:24:56","74.7","58","56","29.79","211","5.3","11.5","0.00","0.00"
"00:29:58","74.7","58","56.1","29.80","210","6.1","14","0.00","0.00"
"00:34:56","74.7","58.1","56.1","29.80","215","7.2","13","0.00","0.00"
"00:39:59","74.8","58.2","56.2","29.80","192","7.3","15","0.00","0.00"
"00:44:57","74.8","58.1","56","29.80","201","7.6","16.1","0.00","0.00"
"00:49:59","74.8","58.1","56","29.80","207","7.7","17.3","0.00","0.00"
"00:54:58","74.7","58.1","56.3","29.80","209","5.9","13","0.00","0.00"
"00:59:56","74.6","57.9","56.1","29.80","201","8.6","19.6","0.00","0.00"
"01:04:57","74.7","58","56.1","29.80","205","6.4","13","0.00","0.00"
"01:09:59","74.5","58","56.4","29.80","197","5.7","12.7","0.00","0.00"
"01:14:58","74.4","58.1","56.7","29.80","192","6.4","14","0.00","0.00"
"01:19:56","74.2","58","57","29.80","202","5.3","11.5","0.00","0.00"
"01:24:59","74.1","57.9","57","29.80","202","5.2","12","0.00","0.00"
"01:29:57","73.9","57.9","57.3","29.80","191","5.1","11.5","0.00","0.00"
"01:34:59","73.9","57.9","57.4","29.80","195","5.4","11.5","0.00","0.00"
"01:39:58","73.9","58.1","57.9","29.80","192","2.8","6.9","0.00","0.00"
"01:44:57","73.5","57.9","58.2","29.80","199","4.1","9.2","0.00","0.00"
"01:49:59","73.3","57.9","58.7","29.80","193","4","7","0.00","0.00"
"01:54:57","73.2","57.9","58.8","29.80","203","3.8","11","0.00","0.00"
"01:59:56","73.1","57.9","59","29.80","213","5.1","11.5","0.00","0.00"
"02:04:57","73","57.8","59","29.80","212","4.5","12","0.00","0.00"
"02:09:58","73","57.8","59","29.80","207","5.8","12","0.00","0.00"
"02:14:57","72.9","57.7","59","29.80","215","5.3","11.5","0.00","0.00"
"02:15:23","72.9","57.7","59","29.80","207","6.7","11.5","0.00","0.00"
"02:24:58","72.7","57.7","59.5","29.80","206","4.5","9.2","0.00","0.00"
"02:29:56","72.6","57.8","59.8","29.80","203","5.8","13","0.00","0.00"
"02:34:59","72.5","57.7","59.8","29.79","202","3.6","10.4","0.00","0.00"
"02:39:58","72.3","57.6","60","29.79","190","3.9","8.1","0.00","0.00"
"02:44:56","72.2","57.5","60","29.79","202","4.9","13","0.00","0.00"
"02:49:59","72.2","57.5","60.1","29.78","192","3.3","10.4","0.00","0.00"
"02:54:33","71.9","57.7","60.8","29.78","200","3.6","9.2","0.00","0.00"
"02:59:56","71.7","57.5","61","29.78","194","4.5","9.2","0.00","0.00"
"03:04:58","71.8","57.6","61","29.78","195","5.1","11.5","0.00","0.00"
"03:09:56","72","57.7","60.9","29.78","199","4.5","10.4","0.00","0.00"
"03:14:59","72.1","57.9","61","29.78","205","4.4","10.4","0.00","0.00"
"03:19:57","72.1","57.8","60.8","29.78","199","4.5","12","0.00","0.00"
"03:24:56","72.1","57.8","60.8","29.78","199","4.8","11","0.00","0.00"
"03:29:58","72.1","57.9","61","29.79","220","5.4","10.4","0.00","0.00"
"03:34:57","72.1","57.8","60.7","29.79","216","5.3","10.4","0.00","0.00"
"03:39:56","72.1","57.7","60.5","29.79","213","7.6","14","0.00","0.00"
"03:44:58","72.4","57.7","60","29.80","206","6.8","13","0.00","0.00"
"03:49:56","72.3","57.6","60","29.80","211","4.5","11.5","0.00","0.00"
"03:54:59","72.1","57.6","60.4","29.80","212","5.4","12","0.00","0.00"
"03:59:57","72","57.8","61","29.80","214","6.8","13","0.00","0.00"
"04:04:58","72","57.7","60.8","29.80","206","5.4","12.7","0.00","0.00"
"04:09:56","71.9","57.7","61","29.80","202","4.9","11.5","0.00","0.00"
"04:14:59","71.7","57.6","61.2","29.80","203","5.9","13","0.00","0.00"
"04:19:58","71.5","57.5","61.3","29.80","201","5.5","12","0.00","0.00"
"04:24:56","71.3","57.6","61.9","29.80","185","5.2","12","0.00","0.00"
"04:29:58","71.1","57.4","62","29.80","197","4.5","10.4","0.00","0.00"
"04:34:57","70.8","57.3","62.4","29.80","206","3.8","10.4","0.00","0.00"
"04:39:56","70.6","57.4","63","29.80","192","2.9","8.1","0.00","0.00"
"04:44:58","70.3","57.2","63.2","29.80","183","3.4","10.4","0.00","0.00"
"04:49:56","70","57.3","64","29.79","200","4","9.2","0.00","0.00"
"04:54:59","69.7","57.3","64.6","29.79","191","4.2","14","0.00","0.00"
"04:59:58","69.7","57.3","65","29.79","193","4.6","13.8","0.00","0.00"
"05:04:59","69.5","57.2","65","29.79","194","5.1","13","0.00","0.00"
"05:09:57","69.5","57.2","65","29.79","182","4.9","10.4","0.00","0.00"
"05:14:56","69.4","57.3","65.5","29.79","198","4.3","9.2","0.00","0.00"
"05:19:58","69.1","57.3","66","29.79","195","4.5","11","0.00","0.00"
"05:24:56","68.9","57.5","67","29.79","193","4.3","10.4","0.00","0.00"
"05:29:59","68.8","57.4","67","29.79","195","5","11.5","0.00","0.00"
"05:34:57","68.6","57.2","67.1","29.79","191","4.5","9","0.00","0.00"
"05:39:56","68.4","57.4","68","29.79","195","4.8","10.4","0.00","0.00"
"05:44:58","68.3","57.3","68","29.79","197","4.8","9.2","0.00","0.00"
"05:49:57","68.1","57.3","68.5","29.78","199","4.7","10.4","0.00","0.00"
"05:54:56","67.9","57.4","69","29.78","189","6.2","13","0.00","0.00"
"05:59:58","68","57.4","69","29.78","190","5","12.7","0.00","0.00"
"06:04:56","67.8","57.3","69","29.78","190","4.8","11.5","0.00","0.00"
"06:09:58","67.8","57.3","69","29.78","202","5.7","11.5","0.00","0.00"
"06:14:58","67.8","57.4","69.2","29.78","187","5.1","11.5","0.00","0.00"
"06:19:56","67.7","57.6","70","29.78","196","5.2","11.5","0.00","0.00"
"06:24:59","67.6","57.5","70","29.78","200","5","11.5","0.00","0.00"
"06:29:57","67.4","57.5","70.3","29.78","197","4.4","11","0.00","0.00"
"06:34:52","67.2","57.5","71","29.78","198","4.6","9.2","0.00","0.00"
"06:39:59","66.9","57.4","71.5","29.78","199","4.2","10.4","0.00","0.00"
"06:44:57","67","57.7","72","29.78","189","4.9","10.4","0.00","0.00"
"06:49:56","67","57.7","72","29.78","199","5.1","10.4","0.00","0.00"
"06:54:58","67","57.7","72","29.78","196","4.5","10.4","0.00","0.00"
"06:59:57","67","57.7","72","29.79","186","4.5","12","0.00","0.00"
"07:04:54","67","57.7","72","29.79","188","5","11.5","0.00","0.00"
"07:09:59","67","57.8","72.1","29.79","195","4.5","10.4","0.00","0.00"
"07:14:58","67.1","57.9","72.2","29.79","191","5.8","13","0.00","0.00"
"07:19:56","67.4","58.1","72","29.79","193","6.6","14","0.00","0.00"
"07:24:58","67.6","58.2","72","29.79","196","6.7","13.8","0.00","0.00"
"07:29:56","67.7","58.3","72","29.79","190","5.9","13","0.00","0.00"
"07:34:58","67.9","58.5","71.8","29.78","187","4.9","10.4","0.00","0.00"
"07:39:57","68.1","58.5","71.3","29.78","204","5.8","13","0.00","0.00"
"07:44:59","68.4","58.6","71","29.79","196","6.1","12","0.00","0.00"
"07:49:57","68.6","58.8","71","29.79","191","6","12","0.00","0.00"
"07:54:59","68.8","58.8","70.4","29.79","188","6.4","13","0.00","0.00"
"07:59:57","69","58.9","70.2","29.79","200","7","14","0.00","0.00"
"08:04:58","69.2","59","70","29.79","192","6.7","13","0.00","0.00"
"08:09:59","69.5","59.4","70.2","29.79","196","6.2","12.7","0.00","0.00"
"08:14:58","69.7","59.4","69.9","29.79","180","5.8","13","0.00","0.00"
"08:19:56","70.1","59.5","69","29.79","181","5.1","11.5","0.00","0.00"
"08:24:58","70.5","60.1","69.7","29.79","186","3.5","11.5","0.00","0.00"
"08:29:56","70.8","60","68.9","29.80","200","4.8","10.4","0.00","0.00"
"08:34:58","70.9","60.2","68.9","29.80","181","5","10.4","0.00","0.00"
"08:39:56","71.1","60.4","68.8","29.80","206","5.8","12","0.00","0.00"
"08:44:58","71.3","60.2","68","29.80","201","6.1","11.5","0.00","0.00"
"08:49:56","71.6","60.6","68.3","29.80","212","5.6","11","0.00","0.00"
"08:54:58","71.9","60.9","68.2","29.80","212","5.1","11.5","0.00","0.00"
"08:59:57","72.2","60.8","67.6","29.81","211","7.6","16.1","0.00","0.00"
"09:04:58","72.1","60.8","67.6","29.81","225","8.7","14","0.00","0.00"
"09:09:59","72.1","60.9","67.9","29.81","212","5.9","13.8","0.00","0.00"
"09:14:58","72.6","61","67.2","29.81","209","7.1","15","0.00","0.00"
"09:19:56","72.6","60.9","66.6","29.80","202","7.5","15","0.00","0.00"
"09:24:58","72.8","61","66.5","29.80","213","9.1","20","0.00","0.00"
"09:29:57","72.8","61","66.5","29.80","211","7.6","13","0.00","0.00"
"09:34:59","73.2","61.4","66.6","29.80","213","6.5","15","0.00","0.00"
"09:39:58","73.4","61.3","65.9","29.80","211","8.9","18.4","0.00","0.00"
"09:44:56","73.7","61.3","65.3","29.81","217","8.1","14","0.00","0.00"
"09:49:58","73.8","61.6","65.7","29.81","214","7","15","0.00","0.00"
"09:53:50","74","61.8","65.8","29.81","202","7.1","12.7","0.00","0.00"
"09:59:58","74.3","61.8","65.1","29.81","206","6.5","19.6","0.00","0.00"
"10:04:59","74.8","62.2","65","29.80","210","6.3","13","0.00","0.00"
"10:09:57","75.2","62.3","64.4","29.80","213","6.7","14","0.00","0.00"
"10:14:56","75.5","62.8","64.8","29.80","195","5.4","12","0.00","0.00"
"10:19:58","75.7","62.5","63.6","29.80","215","6.5","15","0.00","0.00"
"10:24:56","76","62.4","62.8","29.80","213","7.4","15","0.00","0.00"
"10:29:58","76.1","62.5","62.8","29.80","195","6.6","13","0.00","0.00"
"10:34:56","76.4","62.1","61.4","29.80","199","7.9","19","0.00","0.00"
"10:39:59","76.5","62","60.9","29.80","196","8.4","15","0.00","0.00"
"10:44:57","76.1","62","61.7","29.80","195","7.7","15","0.00","0.00"
"10:49:59","76.2","63.1","63.8","29.80","206","6.8","14","0.00","0.00"
"10:54:58","76.6","62.3","61.5","29.80","194","5.9","13","0.00","0.00"
"10:59:56","76.2","62.1","61.7","29.80","194","6.8","15","0.00","0.00"
"11:04:57","76","62.7","63.5","29.80","214","6.4","15","0.00","0.00"
"11:09:59","76.7","63","62.6","29.80","199","5.4","11.5","0.00","0.00"
"11:14:58","77.3","63.7","63","29.80","183","4.7","11.5","0.00","0.00"
"11:19:56","77.9","63","60.3","29.79","195","5.1","10.4","0.00","0.00"
"11:24:58","78.3","63","59.3","29.79","202","6.5","14","0.00","0.00"
"11:29:56","78.3","62.5","58.4","29.79","207","6.6","12","0.00","0.00"
"11:34:59","77.8","62.1","58.7","29.79","217","5.4","10.4","0.00","0.00"
"11:39:58","77.7","62.6","59.8","29.79","203","7.1","14","0.00","0.00"
"11:44:56","77.7","62.5","59.6","29.79","223","6.8","13","0.00","0.00"
"11:49:58","77.8","62.3","59","29.79","213","6.7","14","0.00","0.00"
"11:54:57","78.1","61.9","57.7","29.79","194","7.7","14","0.00","0.00"
"11:59:58","78","62.2","58.3","29.80","204","6.3","14","0.00","0.00"
"12:04:56","78","61.8","57.6","29.80","208","6.6","13","0.00","0.00"
"12:09:57","78.2","62.2","58","29.80","178","5.6","12","0.00","0.00"
"12:14:56","78.3","63","59.4","29.80","191","4.6","10.4","0.00","0.00"
"12:19:59","78.9","63","58.2","29.78","203","7","15","0.00","0.00"
"12:24:57","78.5","61.7","56.5","29.78","180","6.3","16.1","0.00","0.00"
"12:29:59","78.2","62","57.6","29.78","203","7.4","15","0.00","0.00"
"12:34:58","78.8","62.3","57.1","29.78","205","5.9","10.4","0.00","0.00"
"12:39:58","78.9","62","56.3","29.78","199","7.7","15","0.00","0.00"
"12:44:57","79","62.4","56.8","29.78","180","6.8","15","0.00","0.00"
"12:49:56","79.5","62.5","56.2","29.78","196","7","13","0.00","0.00"
"12:54:59","79.9","62.8","56.1","29.78","197","6.8","15","0.00","0.00"
"12:59:59","79.9","62.5","55.4","29.78","186","8.3","17.3","0.00","0.00"
"13:04:57","79.6","62.8","56.5","29.78","176","5","12.7","0.00","0.00"
"13:09:59","79.6","62.5","56","29.78","186","6","13","0.00","0.00"
"13:14:59","79.8","63.4","57.4","29.78","184","6.1","14","0.00","0.00"
"13:19:58","80","63.2","56.6","29.78","201","8.2","15","0.00","0.00"
"13:24:58","80","63","56.2","29.78","203","7.7","15","0.00","0.00"
"13:29:57","80.1","62.4","54.7","29.78","193","6.1","15","0.00","0.00"
"13:34:56","80.3","63.4","56.5","29.78","217","7.1","13.8","0.00","0.00"
"13:39:56","80.1","61.8","53.6","29.78","203","8.3","15","0.00","0.00"
"13:44:59","79.7","61.8","54.3","29.78","190","5.5","13","0.00","0.00"
"13:49:58","79.5","61.8","54.9","29.77","205","6.1","12.7","0.00","0.00"
"13:54:57","79","62.4","56.7","29.77","211","5.3","11.5","0.00","0.00"
"13:59:56","78.7","62.6","57.8","29.78","209","4.7","10","0.00","0.00"
"14:04:57","78.7","62.3","57.3","29.78","216","4.8","9.2","0.00","0.00"
"14:09:59","78.5","62.1","57.2","29.78","204","5.3","11","0.00","0.00"
"14:14:58","78.3","61.5","56.6","29.78","200","4.8","11.5","0.00","0.00"
"14:19:59","78","61.9","57.7","29.78","203","4.9","12","0.00","0.00"
"14:24:58","77.9","61.9","58","29.78","231","3.9","7","0.00","0.00"
"14:29:56","77.9","62","58.2","29.78","215","4.1","8.1","0.00","0.00"
"14:34:58","77.8","61.4","57.1","29.78","203","4","7","0.00","0.00"
"14:39:57","77.8","61.4","57.2","29.78","218","4.7","10.4","0.00","0.00"
"14:44:59","77.7","61.1","56.7","29.78","199","4.9","12","0.00","0.00"
"14:49:58","77.6","61.6","57.9","29.78","210","2.8","7","0.00","0.00"
"14:54:56","77.5","61.8","58.4","29.78","216","3","7","0.00","0.00"
"14:59:58","77.5","61.2","57.2","29.79","234","4.5","9","0.00","0.00"
"15:04:55","76.3","58.2","53.5","29.79","333","11.8","27","0.00","0.00"
"15:09:57","72.2","55.4","55.6","29.79","327","13.6","33.4","0.00","0.00"
"15:14:59","69.7","54.6","58.6","29.83","321","13.8","26","0.00","0.00"
"15:19:57","68.6","53.7","59.1","29.83","340","10.4","26.5","0.00","0.00"
"15:24:56","67.9","53.4","59.8","29.83","307","9.2","23","0.00","0.00"
"15:29:58","67.4","53","60","29.84","315","10.9","20","0.00","0.00"
"15:34:56","67.1","52.9","60.3","29.84","326","10.2","23","0.00","0.00"
"15:39:59","67","53","60.7","29.84","314","10.9","24","0.00","0.00"
"15:44:57","67.3","53.2","60.4","29.84","317","10.3","24.2","0.00","0.00"
"15:49:59","68","53.3","59.4","29.84","317","10.8","26.5","0.00","0.00"
"15:54:57","68.7","53.2","57.8","29.84","329","11.2","23","0.00","0.00"
"15:59:59","69","52.4","55.6","29.84","321","12.2","34.5","0.00","0.00"
"16:04:56","68.2","51.5","55.1","29.84","317","11","24.2","0.00","0.00"
"16:09:58","67.8","51.5","56","29.84","328","10.4","23","0.00","0.00"
"16:14:57","67.6","51.4","56.1","29.85","320","9.8","22","0.00","0.00"
"16:19:59","67","50.3","54.8","29.85","336","12.3","23","0.00","0.00"
"16:24:57","66.7","50","54.9","29.85","338","10.3","23","0.00","0.00"
"16:29:59","66.5","49.9","55.2","29.86","313","7.6","20","0.00","0.00"
"16:34:57","66.4","49.7","55","29.86","305","8.1","19.6","0.00","0.00"
"16:39:56","66.2","49.3","54.3","29.86","317","7.6","18.4","0.00","0.00"
"16:44:58","66","48.8","53.7","29.87","316","10.3","18.4","0.00","0.00"
"16:49:57","65.8","48.8","54.1","29.87","289","7.4","20","0.00","0.00"
"16:54:59","65.7","48.9","54.6","29.87","326","6.5","14","0.00","0.00"
"16:59:57","65.8","48.9","54.6","29.87","316","6.7","16.1","0.00","0.00"
"17:04:58","65.8","49","54.5","29.87","334","7.3","14","0.00","0.00"
"17:09:59","65.8","48.8","54.2","29.87","319","7.7","18.4","0.00","0.00"
"17:14:58","65.7","48.5","53.8","29.87","319","8.6","21","0.00","0.00"
"17:19:56","65.6","48.6","54.2","29.87","313","8.2","19.6","0.00","0.00"
"17:24:58","65.3","48.2","54","29.87","322","8.5","18.4","0.00","0.00"
"17:29:57","65","48.3","54.8","29.87","331","9.1","26","0.00","0.00"
"17:34:59","64.9","48","54.3","29.87","337","10.5","26.5","0.00","0.00"
"17:39:57","64.7","46.7","52","29.87","305","12","22","0.00","0.00"
"17:44:56","64.9","46.1","50.5","29.87","310","7.4","20.7","0.00","0.00"
"17:49:58","65.5","45.1","47.7","29.87","321","11.1","20","0.00","0.00"
"17:54:56","66.1","44.9","46.3","29.87","311","9.6","20","0.00","0.00"
"17:59:58","66.2","44","44.7","29.89","313","8.3","20","0.00","0.00"
"18:04:59","66.5","43.9","44","29.89","299","8","17.3","0.00","0.00"
"18:09:56","66.6","44.1","44.2","29.89","291","7.2","19.6","0.00","0.00"
"18:14:59","66.5","44.1","44.4","29.91","293","7","23","0.00","0.00"
"18:19:58","66","43.8","44.6","29.91","299","5.6","14","0.00","0.00"
"18:24:56","65.3","44.1","46.2","29.91","303","5.7","20","0.00","0.00"
"18:29:58","64.7","43.8","46.7","29.92","299","4.6","11.5","0.00","0.00"
"18:34:56","64.2","43.8","47.6","29.92","307","6.9","17","0.00","0.00"
"18:39:59","63.8","43.8","48.1","29.92","306","5.5","17.3","0.00","0.00"
"18:44:57","63.6","43.7","48.4","29.93","317","5.8","12","0.00","0.00"
"18:49:59","63.4","43.6","48.4","29.93","315","4.8","12","0.00","0.00"
"18:54:57","63.3","43.3","48.1","29.93","316","5.7","14","0.00","0.00"
"18:59:59","63.1","42.8","47.5","29.93","321","7.4","18","0.00","0.00"
"19:04:52","63.1","42.4","46.8","29.93","319","5.7","18.4","0.00","0.00"
"19:09:58","63.1","41.6","45.5","29.93","304","6.7","17.3","0.00","0.00"
"19:14:57","63.1","41.1","44.6","29.93","321","6.7","13","0.00","0.00"
"19:19:59","63","41.2","44.8","29.93","322","6.2","13","0.00","0.00"
"19:24:58","63","41","44.5","29.93","314","5.2","12.7","0.00","0.00"
"19:29:57","62.9","40.5","43.8","29.93","324","6.5","15","0.00","0.00"
"19:34:59","62.9","39.7","42.5","29.93","318","8","20","0.00","0.00"
"19:39:59","62.8","39.7","42.6","29.93","324","5.7","13.8","0.00","0.00"
"19:44:57","62.7","38.8","41.3","29.93","317","7","16.1","0.00","0.00"
"19:49:56","62.7","39.1","41.7","29.93","323","4.9","10.4","0.00","0.00"
"19:54:59","62.6","39","41.8","29.93","328","4.2","11.5","0.00","0.00"
"19:59:58","62.4","39","42","29.94","321","3.8","12","0.00","0.00"
"20:04:59","62.2","39","42.3","29.94","323","2.2","5","0.00","0.00"
"20:09:57","62","39","42.7","29.94","335","2.6","7","0.00","0.00"
"20:14:56","61.7","39.1","43.2","29.94","334","1.3","4","0.00","0.00"
"20:19:59","61.4","39","43.5","29.94","341","0.5","3.5","0.00","0.00"
"20:24:58","61.1","38.6","43.3","29.94","343","1.4","5","0.00","0.00"
"20:29:56","60.8","38.8","44.2","29.96","347","0.8","4","0.00","0.00"
"20:34:59","60.4","38.9","44.8","29.96","335","2.5","5","0.00","0.00"
"20:39:58","60.2","38.9","45.2","29.96","342","1.8","3.5","0.00","0.00"
"20:44:57","60","38.8","45.3","29.97","334","2.1","4","0.00","0.00"
"20:49:59","59.9","38.7","45.3","29.97","310","2.4","4","0.00","0.00"
"20:54:59","59.8","38.5","45.1","29.97","303","2.3","5","0.00","0.00"
"20:59:57","59.7","38.8","45.8","29.98","296","3","5","0.00","0.00"
"21:04:59","59.5","38.5","45.6","29.98","316","3.6","6","0.00","0.00"
"21:09:56","59.5","38.3","45.3","29.98","318","3.3","7","0.00","0.00"
"21:14:56","59.6","37.9","44.4","29.98","319","4.3","10.4","0.00","0.00"
"21:19:58","59.7","37.8","44.2","29.98","318","4","9.2","0.00","0.00"
"21:24:57","59.7","37.5","43.7","29.98","328","4.2","9.2","0.00","0.00"
"21:29:56","59.6","37.2","43.1","29.99","321","4.7","8.1","0.00","0.00"
"21:34:58","59.6","37.1","43","29.99","316","4","8","0.00","0.00"
"21:39:58","59.5","37.1","43.2","29.99","326","3.9","8.1","0.00","0.00"
"21:44:56","59.5","37","43","30.00","323","3.4","9.2","0.00","0.00"
"21:49:59","59.3","36.8","43","30.00","309","1.9","5.8","0.00","0.00"
"21:54:58","59.2","36.8","43.2","30.00","319","2.7","5","0.00","0.00"
"21:59:57","59","36.8","43.4","30.00","316","2.4","4","0.00","0.00"
"22:04:58","58.8","37.1","44.2","30.00","314","1.9","3.5","0.00","0.00"
"22:09:56","58.5","36.8","44.3","30.00","339","1.3","3.5","0.00","0.00"
"22:14:56","58.1","37.7","46.5","30.02","339","0.8","1.2","0.00","0.00"
"22:19:59","57.4","37.4","47","30.02","339","0.3","1.2","0.00","0.00"
"22:24:59","57","36.8","46.7","30.02","339","0.5","2.3","0.00","0.00"
"22:29:56","56.6","36.7","47.2","30.02","339","0.5","2.3","0.00","0.00"
"22:34:59","56.4","36.7","47.6","30.02","339","0.3","2.3","0.00","0.00"
"22:39:58","56","36.7","48.2","30.02","339","0.4","2.3","0.00","0.00"
"22:44:57","55.7","36.8","48.9","30.02","339","0.6","2.3","0.00","0.00"
"22:49:56","55.5","36.4","48.6","30.02","339","0.9","2.3","0.00","0.00"
"22:54:59","55.3","36.8","49.7","30.02","339","0.6","2.3","0.00","0.00"
"22:59:59","54.9","37.5","51.9","30.03","339","0.4","2.3","0.00","0.00"
"23:04:56","54.5","37.2","52.1","30.03","339","0.4","2.3","0.00","0.00"
"23:09:58","54.2","37.5","53.3","30.03","339","0.5","1.2","0.00","0.00"
"23:14:57","53.8","37.5","53.9","30.04","339","0","1.2","0.00","0.00"
"23:19:56","53.5","37.7","54.9","30.04","339","0","0","0.00","0.00"
"23:24:59","53.3","37.5","55","30.04","339","0","0","0.00","0.00"
"23:29:57","52.9","37.7","56.1","30.04","339","0","0","0.00","0.00"
"23:34:56","52.6","37.3","56","30.04","339","0","1","0.00","0.00"
"23:39:56","52.3","38.4","59.1","30.04","339","0","1.2","0.00","0.00"
